Location: Recife
(8.0585°S, 34.8848°W)
Time: 13:51:34
(UTC-03:00)

Tiros 1 despin weight - Pass Details

Date: 16 April 2026
Orbit: 555 x 591 km, 48.2° (Epoch: 14 May)

Event Time Altitude Azimuth Distance (km) Brightness Sun altitude
Rises 23:34:39 0° 355° (N) 2,800 - -85.5°
Reaches altitude 10° 23:37:56 10° 21° (NNE) 1,905 - -84.8°
Maximum altitude 23:40:10 14° 52° (NE) 1,673 - -84.3°
Drops below altitude 10° 23:42:25 10° 83° (E) 1,909 - -83.8°
Sets 23:45:43 0° 109° (ESE) 2,809 - -83.0°
